Location: Dana
(41.8364°N, 106.7042°W)
Time: 12:06:18
(UTC+00:00)

Tiros 1 despin weight - Pass Details

Date: 10 May 2026
Orbit: 554 x 591 km, 48.2° (Epoch: 10 June)

Event Time Altitude Azimuth Distance (km) Brightness Sun altitude
Rises 20:14:31 0° 293° (WNW) 2,730 ? 61.5°
Reaches altitude 10° 20:16:53 10° 285° (WNW) 1,835 ? 61.3°
Maximum altitude 20:20:43 36° 218° (SW) 895 ? 60.8°
Drops below altitude 10° 20:24:34 10° 152° (SSE) 1,839 ? 60.3°
Sets 20:26:56 0° 143° (SE) 2,736 ? 60.1°
